C/2010 S1 ( LINEAR )

Japanese version
Home page
Updated on January 8, 2012

---------------------------------------------------------------------

* Profile

Discovery Date September 21, 2010
Magnitude 18.4 mag
Discoverer Lincoln Laboratory Near-Earth Asteroid Research project

* Pictures

* Orbital Elements

Epoch 2013 May 28.0 TT = JDT 2456440.5
T 2013 May 20.31967 TT                                  MPC
q   5.8997923            (2000.0)            P               Q
z  -0.0003188      Peri.  118.61674     +0.53546344     -0.22398653
 +/-0.0000006      Node    93.43030     -0.69562491     -0.66375169
e   1.0018811      Incl.  125.33578     +0.47894142     -0.71362716
From 1694 observations 2010 Sept. 21-2011 Dec. 2, mean residual 0".4.

* Finding Charts

* Magnitudes Graph

        m1 = -2.0 + 5 log d + 15.0 log r

---------------------------------------------------------------------

The orbital elements are published on M.P.E.C. 2011-X25.
The charts are made with StellaNavigator Ver.8 (AstroArts).
The magnitudes graphs are made with Comet for Windows.

---------------------------------------------------------------------

Copyright(C) Seiichi Yoshida (comet@aerith.net). All rights reserved.